Flag for U.S.A. Weather past 2 weeks in Fort Bragg, California, U.S.A.

Now
53 °F

Clear.


Feels Like: 53 °F
Forecast: 51 / 61 °F
Wind: No wind

Location: Ukiah Municipal

Current Time: May 23, 2015 at 2:04:25 AM

Latest Report: May 23, 2015 at 12:56 AM


Visibility: 10 mi

Pressure: 30.02 "Hg

Humidity: 83%

Dew point: 48 °F

Location of Fort BraggLocation

Historic Weather in Fort Bragg — Graph

°F

Fort Bragg temperature yesterday

Maximum temperature yesterday: 74 °F (at 4:56 PM)
Minimum temperature yesterday: 53 °F (at 1:56 AM)
Average temperature yesterday: 61 °F

Past Weeks' High & Low Weather Summary

 TemperatureHumidityPressure
High82 °F (May 9, 4:56 PM)97% (May 15, 1:56 AM)30.07 "Hg (May 15, 1:56 AM)
Low44 °F (May 8, 5:56 AM)22% (May 8, 12:56 PM)29.76 "Hg (May 14, 1:56 PM)
Average59 °F63%29.93 "Hg
* Reported May 8 12:56 AM — May 23 12:56 AM, Fort Bragg, Weather by CustomWeather, © 2015

Note: Actual official high and low records may vary slightly from our data, if they occured in-between our weather recording intervals... More about our weather records

Advertising

Fort Bragg weather history for previous 24 hours

 ConditionsComfort  
Time TempWeatherWind HumidityBarometerVisibility
12:56 AM
Sat, May 23
53 °FClear.No wind83%30.02 "Hg10 mi
11:56 PM
Fri, May 22
55 °FClear.No wind77%30.02 "Hg10 mi
10:56 PM56 °FClear.No wind77%30.02 "Hg10 mi
9:56 PM57 °FClear.No wind74%30.01 "Hg10 mi
8:56 PM59 °FSunny.7 mph69%29.99 "Hg10 mi
7:56 PM62 °FSunny.8 mph62%29.97 "Hg10 mi
6:56 PM64 °FSunny.10 mph56%29.96 "Hg10 mi
5:56 PM67 °FSunny.15 mph51%29.94 "Hg10 mi
4:56 PM74 °FSunny.N/A40%29.93 "Hg10 mi
3:56 PM73 °FSunny.13 mph44%29.93 "Hg10 mi
2:56 PM72 °FSunny.10 mph46%29.93 "Hg10 mi
1:56 PM71 °FSunny.14 mph51%29.95 "Hg10 mi
12:56 PM70 °FSunny.10 mph53%29.96 "Hg10 mi
11:56 AM68 °FSunny.7 mph57%29.97 "Hg10 mi
10:56 AM64 °FPartly sunny.6 mph63%29.98 "Hg10 mi
9:56 AM62 °FOvercast.6 mph67%29.98 "Hg10 mi
8:56 AM59 °FOvercast.5 mph72%29.98 "Hg10 mi
7:56 AM57 °FOvercast.3 mph74%29.97 "Hg10 mi
6:56 AM56 °FOvercast.No wind77%29.97 "Hg10 mi
5:56 AM56 °FMostly cloudy.3 mph77%29.96 "Hg10 mi
4:56 AM56 °FOvercast.No wind75%29.96 "Hg10 mi
3:56 AM55 °FOvercast.3 mph77%29.95 "Hg10 mi
2:56 AM56 °FOvercast.3 mph75%29.95 "Hg10 mi
Weather by CustomWeather, © 2015

See weather overviewHow to use our weather pages